Find OneWeb SL0338

NORAD ID: 49204 Int'l Des: 2021-083 Owner: ONEWEBN Country: UK Constellation: oneweb operational
LEOCIRCULARPOLARONEWEB_TYPE

現在のビュー

3D地球を読み込み中...

About OneWeb SL0338

OneWeb SL0338 (NORAD 49204) is a oneweb constellation satellite launched Sep 14, 2021 by ONEWEBN of UK. It operates in LEO, CIRCULAR, POLAR, ONEWEB_TYPE orbit with a mass of 148.00 kg.

OneWeb SL0338について

説明を読み込み中...

次回通過

Passes for default location (London). Set your location on the main map for personalized predictions.

高度履歴

Loading altitude history...

軌道要素

1 49204U 21083U 26173.72285421 -.00000065 00000-0 -19115-3 0 9996
2 49204 87.9185 273.3451 0001754 106.3704 253.7622 13.20774285237549
Epoch: Jun 22, 2026 • Age: 25 hours

現在のステータス

高度 1203.6 km
速度 7.25 km/s
衛星直下点 -53.10°S, 80.41°E
打ち上げ日 Sep 14, 2021
運用期間 4.7 years
タイプ internet

技術仕様

分類 Payload
質量 148.00 kg
乾燥質量 140.00 kg
総質量 148.00 kg
長さ 1.30 m
直径 1.00 m
スパン 5.00 m
形状 Trapezoid+2 pan
製造者 ONEWUS
バスタイプ ARROW
フェーズステータス In Orbit
所有者/国 ONEWEBN/UK

Most Searched